Regional Weather Roundup
Issued by NWS

Home | Current Version | Previous Version | Graphics & Text | Print | Product List | Glossary Off
Versions: 1 2 3 4 5 6 7 8 9 10 11 12 13 14 15 16 17 18 19 20 21 22 23 24 25 26 27 28 29 30 31 32 33 34 35 36 37 38 39 40 41 42 43 44 45 46 47 48 49 50

316
ASUS43 KMKX 181210
RWRWI

WISCONSIN REGIONAL WEATHER ROUNDUP
NATIONAL WEATHER SERVICE MILWAUKEE/SULLIVAN WI
600 AM CST MON DEC 18 2017

NOTE: "FAIR" INDICATES FEW OR NO CLOUDS BELOW 12,000 FEET WITH NO
SIGNIFICANT WEATHER AND/OR OBSTRUCTIONS TO VISIBILITY.

WIZ001-002-006>008-014>016-023>028-181300-
NORTHWEST WISCONSIN

CITY           SKY/WX    TMP DP  RH WIND       PRES   REMARKS
SUPERIOR ARPT  CLOUDY    25  22  87 SW5       29.76F FOG     WCI  20
6HR MIN TEMP:  25; 6HR MAX TEMP:  26;

ASHLAND        CLOUDY    27  24  89 SW8       29.79F FOG     WCI  19
6HR MIN TEMP:  27; 6HR MAX TEMP:  27;

HAYWARD        CLOUDY    26  23  88 SW8       29.79F FOG     WCI  18
6HR MIN TEMP:  26; 6HR MAX TEMP:  27;

SIREN          CLOUDY    25  23  94 S6        29.79F FOG     WCI  18
6HR MIN TEMP:  24; 6HR MAX TEMP:  26;

CUMBERLAND     CLOUDY    25  23  93 S7        29.81F FOG     WCI  17
RICE LAKE      CLOUDY    26  25  99 CALM      29.84S FOG
6HR MIN TEMP:  25; 6HR MAX TEMP:  27;

CHETEK         CLOUDY    25  25  99 S5        29.84S WCI  19
6HR MIN TEMP:  25; 6HR MAX TEMP:  26;

LADYSMITH      FOG       26  26  97 S6        29.83F VSB 1   WCI  20
6HR MIN TEMP:  26; 6HR MAX TEMP:  28;

EAU CLAIRE     CLOUDY    28  26  92 SW6       29.85F FOG     WCI  22
6HR MIN TEMP:  27; 6HR MAX TEMP:  28;

MENOMONIE      CLOUDY    28  28  96 S3        29.84F FOG
6HR MIN TEMP:  27; 6HR MAX TEMP:  28;

NEW RICHMOND   CLOUDY    26  26  99 S8        29.82F FOG     WCI  17
OSCEOLA        CLOUDY    26  26 100 SE8       29.84F FOG     WCI  18
6HR MIN TEMP:  26; 6HR MAX TEMP:  26;

$$

WIZ003>005-009-010-017-018-181300-
NORTH CENTRAL WISCONSIN

CITY           SKY/WX    TMP DP  RH WIND       PRES   REMARKS
MANITOWISH WTR CLOUDY    24  24 100 SW5       29.77R FOG     WCI  19
6HR MIN TEMP:  24; 6HR MAX TEMP:  24;

ARBOR VITAE    CLOUDY    26  25  94 SW5       29.77S FOG     WCI  21
6HR MIN TEMP:  26; 6HR MAX TEMP:  27;

WOODRUFF       CLOUDY    26  25  94 SW5       29.77S FOG     WCI  21
6HR MIN TEMP:  26; 6HR MAX TEMP:  27;

RHINELANDER    CLOUDY    26  25  96 SW6       29.78F FOG     WCI  19
6HR MIN TEMP:  25; 6HR MAX TEMP:  26;

EAGLE RIVER    CLOUDY    25  25 100 SW6       29.76F FOG     WCI  18
6HR MIN TEMP:  25; 6HR MAX TEMP:  26;

LAND O LAKES   CLOUDY    26  25  98 SW3       29.77F FOG
6HR MIN TEMP:  25; 6HR MAX TEMP:  26;

PHILLIPS       CLOUDY    25  25 100 SW6       29.79R FOG     WCI  18
6HR MIN TEMP:  25; 6HR MAX TEMP:  25;

TOMAHAWK       CLOUDY    25  24  96 CALM      29.80F FOG
6HR MIN TEMP:  25; 6HR MAX TEMP:  25;

MEDFORD        FOG       25  24  96 SW6       29.81S VSB 1   WCI  18
6HR MIN TEMP:  25; 6HR MAX TEMP:  25;

MERRILL        CLOUDY    26  26 100 SW5       29.83S FOG     WCI  20
6HR MIN TEMP:  26; 6HR MAX TEMP:  26;

$$

WIZ029-030-035-036-043>047-181300-
CENTRAL WISCONSIN

CITY           SKY/WX    TMP DP  RH WIND       PRES   REMARKS
WAUSAU         CLOUDY    26  26 100 SW5       29.80F FOG     WCI  20
6HR MIN TEMP:  26; 6HR MAX TEMP:  26; 6HR PCP:  0.01;

MOSINEE        FOG       27  27 100 SW3       29.84S VSB 1/4
MARSHFIELD     CLOUDY    27  27 100 W7        29.82F FOG     WCI  19
6HR MIN TEMP:  27; 6HR MAX TEMP:  27;

STEVENS POINT  FOG       27  27 100 SW3       29.85S VSB 1
6HR MIN TEMP:  26; 6HR MAX TEMP:  27;

WAUPACA        CLOUDY    31  29  93 SW3       29.86F FOG
6HR MIN TEMP:  30; 6HR MAX TEMP:  31;

WAUTOMA        CLOUDY    30  28  92 SW7         N/A  WCI  23
6HR MIN TEMP:  29; 6HR MAX TEMP:  30;

WISC RAPIDS    FOG       28  27  96 W6        29.87S VSB 1   WCI  22
6HR MIN TEMP:  28; 6HR MAX TEMP:  29;

CAMP DOUGLAS   CLOUDY    30  29  95 W8        29.86F WCI  22
6HR MIN TEMP:  30; 6HR MAX TEMP:  31;

$$

WIZ011>013-019>022-031-037>040-048>050-181300-
NORTHEAST WISCONSIN

CITY           SKY/WX    TMP DP  RH WIND       PRES   REMARKS
ANTIGO         FOG       24  24 100 SW5       29.80F VSB 3/4 WCI  19
6HR MIN TEMP:  24; 6HR MAX TEMP:  25;

SHAWANO        CLOUDY    30  28  94 W6        29.85F FOG     WCI  24
6HR MIN TEMP:  29; 6HR MAX TEMP:  30;

OCONTO         CLOUDY    28  26  96 SW6       29.86S WCI  21
6HR MIN TEMP:  28; 6HR MAX TEMP:  28;

STURGEON BAY   CLOUDY    28  27  96 W7        29.86F FOG     WCI  21
6HR MIN TEMP:  28; 6HR MAX TEMP:  29;

GREEN BAY      CLOUDY    30  27  88 W5        29.86F FOG     WCI  25
6HR MIN TEMP:  29; 6HR MAX TEMP:  30;

MANITOWOC      CLOUDY    30  28  92 W7        29.88F FOG     WCI  23
6HR MIN TEMP:  30; 6HR MAX TEMP:  30;

APPLETON       CLOUDY    28  28 100 W8        29.85S FOG     WCI  20
CLINTONVILLE   CLOUDY    28  28 100 W5        29.85F FOG     WCI  23
OSHKOSH        FOG       30  30 100 SW3       29.87S VSB 1/4
6HR MIN TEMP:  30; 6HR MAX TEMP:  31;

$$

WIZ032>034-041-042-053>061-181300-
SOUTHWEST WISCONSIN

CITY           SKY/WX    TMP DP  RH WIND       PRES   REMARKS
LA CROSSE      CLOUDY    32  29  88 SW6       29.89F FOG     WCI  26
6HR MIN TEMP:  31; 6HR MAX TEMP:  32;

SPARTA         CLOUDY    28  28  99 W3        29.88F FOG
6HR MIN TEMP:  28; 6HR MAX TEMP:  30;

VIROQUA        CLOUDY    30  30 100 CALM      29.86F
6HR MIN TEMP:  30; 6HR MAX TEMP:  30;

BOSCOBEL       CLOUDY    34  29  82 SW5       29.91S HAZE    WCI  30
6HR MIN TEMP:  33; 6HR MAX TEMP:  34;

PRAIRIE DU CHI CLOUDY    32  28  83 SW7       29.91S HAZE    WCI  26
6HR MIN TEMP:  32; 6HR MAX TEMP:  33;

PLATTEVILLE    MOCLDY    33  33 100 W8        29.90S WCI  26
6HR MIN TEMP:  33; 6HR MAX TEMP:  34;

$$

WIZ056-057-062-063-064-067-068-181300-
SOUTH CENTRAL WISCONSIN

CITY           SKY/WX    TMP DP  RH WIND       PRES   REMARKS
REEDSBURG      CLOUDY    31  31  99 W6        29.87F FOG     WCI  26
6HR MIN TEMP:  31; 6HR MAX TEMP:  31;

BARABOO/DELLS  CLOUDY    31  30  94 W5        29.87S FOG     WCI  26
6HR MIN TEMP:  30; 6HR MAX TEMP:  31;

LONE ROCK      CLOUDY    33  30  88 W5        29.90S FOG     WCI  29
6HR MIN TEMP:  32; 6HR MAX TEMP:  33;

MINERAL POINT  CLOUDY    34  34 100 W6        29.89R FOG     WCI  29
MADISON        CLOUDY    33  32  96 W6        29.89F FOG     WCI  28
6HR MIN TEMP:  32; 6HR MAX TEMP:  33; 6HR PCP:  0.03;

MIDDLETON      CLOUDY    34  34 100 W8        29.89R WCI  27
6HR MIN TEMP:  33; 6HR MAX TEMP:  34; 6HR PCP:  0.01;

WATERTOWN      FOG       32  32 100 S3        29.88F VSB 1/2
6HR MIN TEMP:  31; 6HR MAX TEMP:  32; 6HR PCP:  0.01;

MONROE         CLOUDY    34  34 100 W13       29.89R FOG     WCI  25
JANESVILLE     CLOUDY    36  36 100 W10       29.89F FOG     WCI  28
$$

WIZ051-052-058>065-066-070>072-181300-
SOUTHEAST WISCONSIN

CITY           SKY/WX    TMP DP  RH WIND       PRES   REMARKS
MILWAUKEE      CLOUDY    36  35  96 SW3       29.90R FOG
6HR MIN TEMP:  34; 6HR MAX TEMP:  36; 6HR PCP:  0.05;

WAUKESHA       CLOUDY    32  32 100 CALM      29.90S FOG
MILWAUKEE/TIMM CLOUDY    32  32 100 S3        29.89F FOG
RACINE         FOG       36  36 100 SW5       29.92R VSB 1   WCI  32
6HR MIN TEMP:  34; 6HR MAX TEMP:  36; 6HR PCP:  0.02;

BURLINGTON     CLOUDY    49  49 100 W6        29.90R FOG
6HR MIN TEMP:  45; 6HR MAX TEMP:  49;

KENOSHA        CLOUDY    39  37  92 W10       29.90S FOG     WCI  32
6HR MIN TEMP:  35; 6HR MAX TEMP:  39; 6HR PCP:  0.01;

FOND DU LAC    FOG       31  29  92 CALM      29.87F VSB 1/4
6HR MIN TEMP:  30; 6HR MAX TEMP:  31;

SHEBOYGAN      CLOUDY    30  30 100 S3        29.87F FOG
6HR MIN TEMP:  30; 6HR MAX TEMP:  30;

WEST BEND      CLOUDY    32  32 100 CALM      29.87F FOG
JUNEAU         FOG       31  31  99 SW3       29.88F VSB 1/2
6HR MIN TEMP:  30; 6HR MAX TEMP:  31;

$$

LSZ147-162-181300-
LAKE SUPERIOR

STATION/POSITION TIME  TEMP    WIND        PRES    WAVE
                       AIR SEA DIR/SP/G            HT/PER
                 (UTC) (F)     (DEG/KT/KT) (MB)    (FT/S)
DEVILS ISLAND    1200   28     220/ 13/ 15 1008.7F
SAXON HARBOR     1140   29                 1008.5F
$$

LMZ867-665-643>646-181300-
LAKE MICHIGAN

STATION/POSITION TIME  TEMP    WIND        PRES    WAVE
                       AIR SEA DIR/SP/G            HT/PER
                 (UTC) (F)     (DEG/KT/KT) (MB)    (FT/S)
NORTHPORT PIER   1140



USA.gov is the U.S. government's official web portal to all federal, state and local government web resources and services.